Regional Weather Roundup
Issued by NWS Upton, NY

Current Version | Previous Version | Text Only | Print | Product List | Glossary On
Versions: 1 2 3 4 5 6 7 8 9 10 11 12 13 14 15 16 17 18 19 20 21 22 23 24 25 26 27
000
ASUS41 KOKX 220709
RWROKX

REGIONAL WEATHER ROUNDUP
NATIONAL WEATHER SERVICE NEW YORK NY
300 AM EDT FRI SEP 22 2017

NOTE: "FAIR" INDICATES FEW OR NO CLOUDS BELOW 12,000 FEET WITH NO
SIGNIFICANT WEATHER AND/OR OBSTRUCTIONS TO VISIBILITY.

NYZ071-072-176-178-NJZ106-104-220800-
NEW YORK CITY METRO AREA

CITY           SKY/WX    TMP DP  RH WIND       PRES   REMARKS
Central Park   CLOUDY    70  49  47 N8        30.03F
Bronx Bot Gard   N/A     68  48  49 NW5       30.01F
LaGuardia APRT CLOUDY    70  52  52 N15       30.00F
Kennedy INTL   CLOUDY    70  48  45 N16       29.99F
Breezy Point     N/A     70 N/A N/A N15G21      N/A
Newark/Liberty CLOUDY    69  57  65 N14       30.01F
Teterboro      CLOUDY    70  53  54 N7        30.00F
$$

NYZ177-179-078>081-220800-
LONG ISLAND NEW YORK

CITY           SKY/WX    TMP DP  RH WIND       PRES   REMARKS
Jones Beach      N/A     68 N/A N/A N16G23      N/A
Matinecock PT    N/A     70 N/A N/A NE18G25     N/A
Farmingdale    CLOUDY    68  49  50 N14G24    29.97F
MacArthur/ISP  CLOUDY    68  50  52 N18G29    29.95F
Shirley        CLOUDY    70  51  51 N16G25    29.95S
Mt Sinai Harb    N/A    N/A N/A N/A N21         N/A
Westhampton    MOCLDY    68  50  52 N15G25    29.94F
East Hampton   CLOUDY    64  53  66 N16G32    29.91F
Montauk          N/A     66  57  72 N20G35    29.91F
$$

NYZ052-065-067-220800-
HUDSON VALLEY

CITY           SKY/WX    TMP DP  RH WIND       PRES   REMARKS
White Plains   CLOUDY    66  47  50 N9        30.01F
Larchmont Harb   N/A     68 N/A N/A NW9         N/A
Croton On Huds   N/A     66 N/A N/A N5          N/A
Newburgh       NOT AVBL
Montgomery     CLOUDY    63  58  83 NE3       30.05S
Poughkeepsie   CLOUDY    62  58  86 N3        30.03F
Albany         CLOUDY    61  55  81 CALM      30.09F
$$

NJZ001-105-106-008-010-013-015-019>022-104-220800-
NEW JERSEY

CITY           SKY/WX    TMP DP  RH WIND       PRES   REMARKS
Newark/Liberty CLOUDY    69  57  65 N14       30.01F
Teterboro      CLOUDY    70  53  54 N7        30.00F
Caldwell       CLOUDY    66  62  87 CALM      30.03F
Somerville     NOT AVBL
Linden         FAIR      71  55  58 NE5       30.01F
Perth Amboy      N/A     70 N/A N/A N7          N/A
Sussex         CLOUDY    60  60 100 CALM      30.05S
Andover          N/A     61  60  97 CALM      30.06S
Trenton        CLOUDY    68  61  78 N7        30.01F
Millville      MOCLDY    70  67  90 NW5       30.01S
Atlantic City  CLOUDY    67  64  90 NW5       29.99F
Wrightstown    CLOUDY    66  62  85 NW8       29.98F
Toms River     CLOUDY    67  62  84 N7        30.00F
Belmar         CLOUDY    68  58  70 N7        30.01F
$$

PAZ047>061-062-071-220800-
EASTERN PENNSYLVANIA

CITY           SKY/WX    TMP DP  RH WIND       PRES   REMARKS
Philadelphia   CLOUDY    72  60  66 N9        30.02S
Allentown      PTCLDY    64  60  87 NW3       30.04F
Scranton       MOCLDY    61  60  97 CALM      30.08S
$$

CTZ002-004>006-009-010-012-RIZ004-006-007-MAZ004-011-015-220800-
SOUTHERN NEW ENGLAND
 IN CT

CITY           SKY/WX    TMP DP  RH WIND       PRES   REMARKS
Bradley INTL   PTCLDY    64  48  56 N13       30.02F
Hartford       CLOUDY    66  49  54 N13G21    29.99F
Danbury        CLOUDY    66  47  50 NE8       30.04F
Wtrbury/Oxford MOCLDY    63  47  55 N16       30.02F
Norwalk Harbor   N/A     68 N/A N/A N16G22      N/A
Bridgeport     CLOUDY    68  47  46 N18G29    29.96F
Meriden        CLOUDY    66  47  50 N16G24    29.98F
New Haven      CLOUDY    68  48  48 N17G31    29.95F
Chester        FAIR      66  48  52 N17G25    29.96F
Groton         CLOUDY    66  53  63 N20G26    29.91F
Wilimantic     MOCLDY    66  50  56 N14G23    29.98F

 IN RI

CITY           SKY/WX    TMP DP  RH WIND       PRES   REMARKS
Providence     CLOUDY    63  57  81 N24       29.95F
Block Island   CLOUDY    62  56  80 N29G44    29.87F
Westerly       CLOUDY    65  55  70 N18G38    29.92F
 IN MA

CITY           SKY/WX    TMP DP  RH WIND       PRES   REMARKS
Boston         CLOUDY    60  56  86 N24G35    30.00F
Worcester      CLOUDY    59  46  62 N16G26    30.02F
Westfield      PTCLDY    61  50  67 N10       30.04F
Provincetown   CLOUDY    60  56  86 NE28G35   29.91F
Nantucket      CLOUDY    61  61 100 N36G47    29.75F FOG
$$

ANZ330-335-338-340-345-350-353-355-220800-
COASTAL MARINE OBSERVATIONS


STATION/POSITION TIME  SKY/WX   TEMP    WIND        PRES    VSBY  WAVE
                                AIR SEA DIR/SP/G                  HT/PER
                 (UTC)          (F)     (DEG/KT/KT) (MB)    (MI)  (FT/S)
NY HARB ENTRANCE 0550            71 70  350/ 16/ 19 1014.7          5/10
20 S FIRE ISLAND 0550            69 67  360/ 19/ 25 1013.7          9/10
GREAT SOUTH BAY  0615            69 70  360/ 19/ 27   N/A
23 SSW MONTAUK P 0550            67 65              1012.0          9/11
15 E BARNEGAT LI 0630               69                N/A           6/10
HUDSON CANYON    0550            68 68  360/ 21/ 27 1011.9         12/10
KINGS POINT      0624            70 71   40/ 15/ 18 1016.8
EXECUTION ROCKS  0645            70      20/ 12/ 17   N/A
WESTERN LI SOUND NOT AVBL
CENTRAL LI SOUND 0630            69      10/ 17/ 21   N/A           2
EASTERN LI SOUND NOT AVBL
ROBBINS REEF     0624            72      20/ 18/ 22 1016.6
$$


>>>>>>>>>>>>>>>>>>>>>>>>>>>> KEY <<<<<<<<<<<<<<<<<<<<<<<<<<<
>                                                          <
>     SKY/WX - Sky Condition/Present Weather               <
>     TMP    - Temperature in Fahrenheit                   <
>     DP     - Dew Point in Fahrenheit                     <
>     RH     - Relative Humidity in Percent                <
>     WIND   - Direction (from) and Speed in MPH           <
>     PRES   - Mean Sea Level Pressure (inches of Hg)      <
>     WCI    - Wind Chill Index                            <
>     VSB    - VISIBILITY IN MILES                         <
>     HX     - HEAT INDEX                                  <
>     TC     - TEMPERATURE IN CELSIUS                      <
>     VRB    - VARIABLE WIND DIRECTION                     <
>                                                          <
>>>>>>>>>>>>>>>>>>>>>>>>>>>> KEY <<<<<<<<<<<<<<<<<<<<<<<<<<<




USA.gov is the U.S. government's official web portal to all federal, state and local government web resources and services.